Capitol Logistics 783


VVNB
Noi Bai International Airport
Hanoi, VN
RKSI
Incheon International Airport
Seoul, KR

Activity Log

Date Flight Route Aircraft Duration
No Flights Yet

Route Details

Aircraft Information
Primary: Boeing 767-300BDSF
Backup: Not Available
Route Data
Distance: 1449nm
Sched. Duration: 3h 39m
Avg. Duration: 0h 00m (-340m)
Times Flown: 0
Recm'd Route: BUNBO1A NAKHA R474 LON R474 GYA B330 POU A599 PUD A593 AKARA A326 IKADI A326 MUDAL A591 AGAVO G597 GONAV GONAV2M
Planned Altitude: 35,000ft
Origin Wx: VVNB 190800Z 12007KT 080V160 8000 NSC 21/05 Q1016 NOSIG
Dest. Wx: RKSI 190800Z 32003KT CAVOK M04/M18 Q1032 NOSIG
Notes:

Financial History
Total Freight: 0lbs
Average Load: 0lbs/flt
Fuel Used: 0lbs
Avg. Fuel Used: 0lbs/flt
Fuel Expense: $0
Avg. Fuel Expense: $0
Avg. Fuel Cost: $0/lbs
Total Gross Income: $0
Pilot Pay: $0
Total Expenses: $0
Total Revenue: $0
Average Revenue: $0